Weather History for KCIR - February, 2013

Change the Weather History Date:

Thursday, February 21, 2013

  Actual Average (KPAH) Record (KPAH)
Temperature  
Mean Temperature 32 °F 41 °F  
Max Temperature 35 °F 51 °F 71 °F (1983)
Min Temperature 28 °F 31 °F 1 °F (1963)
Degree Days  
Heating Degree Days 34 24  
Month to date heating degree days 563  
Since 1 July heating degree days 3136  
Cooling Degree Days 0 0  
Month to date cooling degree days 0  
Year to date cooling degree days 0  
Moisture  
Dew Point 25 °F    
Average Humidity 75    
Maximum Humidity 93    
Minimum Humidity 56    
Precipitation  
Precipitation 0.91 in 0.14 in 2.07 in (1974)
Month to date precipitation 2.94  
Year to date precipitation 6.62  
Snow  
Snow 0.00 in 0.10 in 0.20 in (2008)
Month to date snowfall 2.6  
Since 1 July snowfall 7.9  
Snow Depth -    
Sea Level Pressure  
Sea Level Pressure 30.06 in    
Wind  
Wind Speed 9 mph (ENE)    
Max Wind Speed 21 mph    
Max Gust Speed 28 mph    
Visibility 7 miles    
Events Snow , Thunderstorm    
T = Trace of Precipitation, MM = Missing Value Source: NWS Daily Summary

Daily Weather History Graph

Daily Weather History Graph

Search for Another Location

Airport or City:

Trip Planner

Search our weather history database for the weather conditions in past years. The results will help you decide how hot, cold, wet, or windy it might be!

Date:

Astronomy

Feb. 21, 2013 Rise Set
Actual Time 6:38 AM CST 5:43 PM CST
Civil Twilight 6:11 AM CST 6:09 PM CST
Nautical Twilight 5:41 AM CST 6:40 PM CST
Astronomical Twilight 5:11 AM CST 7:10 PM CST
Moon 2:01 PM CST (2/21) 3:38 AM CST (2/21)
Length of Visible Light 11h 58m
Length of Day
11h 05m
Waxing Gibbous, 84% of the Moon is Illuminated
Feb 21
Waxing Gibbous
Feb 25
Full
Mar 4
Last Quarter
Mar 11
New
Mar 19
First Quarter

Hourly Weather History & Observations

Time (CST) Temp. Windchill Dew Point Humidity Pressure Visibility Wind Dir Wind Speed Gust Speed Precip Events Conditions
12:15 AM 30.2 °F 21.3 °F 21.2 °F 69% 30.28 in 10.0 mi NNE 10.4 mph - N/A   Overcast
12:35 AM 28.4 °F 21.2 °F 21.2 °F 74% 30.28 in 10.0 mi NE 6.9 mph - N/A   Mostly Cloudy
12:55 AM 30.2 °F 21.3 °F 21.2 °F 69% 30.28 in 10.0 mi NE 10.4 mph - N/A   Scattered Clouds
1:15 AM 30.2 °F 21.9 °F 21.2 °F 69% 30.29 in 10.0 mi NE 9.2 mph - N/A   Scattered Clouds
1:35 AM 28.4 °F 19.7 °F 21.2 °F 74% 30.28 in 10.0 mi NE 9.2 mph - N/A   Mostly Cloudy
1:55 AM 30.2 °F 21.9 °F 21.2 °F 69% 30.28 in 10.0 mi NE 9.2 mph - N/A   Scattered Clouds
2:15 AM 28.4 °F 20.4 °F 19.4 °F 69% 30.28 in 10.0 mi NE 8.1 mph - N/A   Clear
2:35 AM 28.4 °F 21.2 °F 19.4 °F 69% 30.28 in 10.0 mi NE 6.9 mph - N/A   Clear
2:55 AM 28.4 °F 18.5 °F 21.2 °F 74% 30.26 in 10.0 mi NE 11.5 mph - N/A   Scattered Clouds
3:15 AM 28.4 °F 18.5 °F 19.4 °F 69% 30.26 in 10.0 mi NE 11.5 mph - N/A   Overcast
3:35 AM 28.4 °F 19.1 °F 19.4 °F 69% 30.26 in 10.0 mi NE 10.4 mph - N/A   Overcast
3:55 AM 30.2 °F 21.3 °F 19.4 °F 64% 30.26 in 10.0 mi ENE 10.4 mph - N/A   Overcast
4:15 AM 30.2 °F 21.9 °F 19.4 °F 64% 30.27 in 10.0 mi NE 9.2 mph - N/A   Scattered Clouds
4:35 AM 30.2 °F 20.8 °F 19.4 °F 64% 30.26 in 10.0 mi ENE 11.5 mph - N/A   Mostly Cloudy
4:55 AM 30.2 °F 20.2 °F 19.4 °F 64% 30.24 in 10.0 mi ENE 12.7 mph 17.3 mph N/A   Overcast
5:15 AM 28.4 °F 18.0 °F 19.4 °F 69% 30.23 in 10.0 mi ENE 12.7 mph - N/A   Overcast
5:55 AM 28.4 °F 19.7 °F 19.4 °F 69% 30.22 in 10.0 mi NE 9.2 mph - N/A   Mostly Cloudy
6:15 AM 28.4 °F 18.5 °F 19.4 °F 69% 30.21 in 10.0 mi ENE 11.5 mph - N/A   Scattered Clouds
6:35 AM 28.4 °F 19.1 °F 19.4 °F 69% 30.19 in 10.0 mi ENE 10.4 mph - N/A   Clear
6:55 AM 28.4 °F 18.5 °F 19.4 °F 69% 30.20 in 10.0 mi ENE 11.5 mph 18.4 mph N/A   Clear
7:15 AM 30.2 °F 20.8 °F 19.4 °F 64% 30.19 in 10.0 mi ENE 11.5 mph 17.3 mph N/A   Clear
7:35 AM 30.2 °F 19.8 °F 19.4 °F 64% 30.20 in 10.0 mi ENE 13.8 mph - N/A   Scattered Clouds
7:55 AM 30.2 °F 19.8 °F 19.4 °F 64% 30.21 in 10.0 mi ENE 13.8 mph 17.3 mph N/A   Mostly Cloudy
8:15 AM 32.0 °F 21.6 °F 19.4 °F 60% 30.19 in 10.0 mi ENE 15.0 mph 21.9 mph N/A   Overcast
8:35 AM 32.0 °F 21.6 °F 19.4 °F 60% 30.19 in 10.0 mi ENE 15.0 mph 21.9 mph N/A   Overcast
8:55 AM 32.0 °F 20.8 °F 19.4 °F 60% 30.18 in 10.0 mi ENE 17.3 mph 20.7 mph N/A   Overcast
9:15 AM 32.0 °F 20.8 °F 19.4 °F 60% 30.15 in 10.0 mi East 17.3 mph 25.3 mph N/A   Overcast
9:35 AM 33.8 °F 22.5 °F 19.4 °F 56% 30.13 in 10.0 mi East 19.6 mph 27.6 mph N/A   Overcast
9:55 AM 33.8 °F 25.3 °F 21.2 °F 60% 30.16 in 10.0 mi NE 11.5 mph - N/A   Overcast
10:15 AM 33.8 °F 25.3 °F 21.2 °F 60% 30.17 in 10.0 mi NE 11.5 mph - N/A   Overcast
10:35 AM 33.8 °F 23.9 °F 23.0 °F 65% 30.14 in 10.0 mi ENE 15.0 mph - N/A   Overcast
10:55 AM 33.8 °F 23.9 °F 23.0 °F 65% 30.12 in 10.0 mi East 15.0 mph 20.7 mph N/A   Overcast
11:15 AM 33.8 °F 22.8 °F 23.0 °F 65% 30.06 in 10.0 mi ENE 18.4 mph 24.2 mph N/A   Overcast
11:35 AM 33.8 °F 23.2 °F 23.0 °F 65% 30.03 in 10.0 mi ENE 17.3 mph 27.6 mph N/A   Overcast
11:55 AM 33.8 °F 23.2 °F 23.0 °F 65% 30.02 in 10.0 mi ENE 17.3 mph 20.7 mph N/A   Overcast
12:15 PM 33.8 °F 22.2 °F 23.0 °F 65% 30.00 in 10.0 mi ENE 20.7 mph 26.5 mph N/A   Overcast
12:35 PM 33.8 °F 23.5 °F 24.8 °F 70% 29.97 in 10.0 mi ENE 16.1 mph 21.9 mph N/A   Overcast
12:55 PM 33.8 °F 26.4 °F 24.8 °F 70% 29.98 in 10.0 mi East 9.2 mph - N/A Snow , Thunderstorm Light Thunderstorms and Snow
1:15 PM 33.8 °F 26.4 °F 26.6 °F 75% 29.98 in 5.0 mi East 9.2 mph - 0.02 in Snow Light Snow
1:35 PM 33.8 °F - 26.6 °F 75% 30.03 in 3.0 mi Calm Calm - 0.06 in Snow Light Snow
1:55 PM 33.8 °F 30.8 °F 26.6 °F 75% 30.05 in 1.5 mi NNE 3.5 mph - 0.14 in Snow Light Snow
2:15 PM 33.8 °F 27.7 °F 28.4 °F 81% 30.02 in 2.5 mi NNE 6.9 mph - 0.06 in Snow Light Snow
2:35 PM 33.8 °F 26.4 °F 28.4 °F 81% 29.99 in 4.0 mi NE 9.2 mph - 0.09 in Snow Light Snow
2:55 PM 33.8 °F 25.8 °F 28.4 °F 81% 29.97 in 5.0 mi NE 10.4 mph - 0.13 in Snow Light Snow
3:15 PM 33.8 °F 26.4 °F 30.2 °F 87% 29.97 in 2.0 mi NE 9.2 mph - 0.08 in Snow Light Snow
3:35 PM 33.8 °F 27.0 °F 30.2 °F 87% 29.94 in 1.8 mi NE 8.1 mph - 0.19 in Snow Light Snow
3:55 PM 33.8 °F 27.0 °F 30.2 °F 87% 29.91 in 1.5 mi NE 8.1 mph - 0.27 in Snow Light Snow
4:15 PM 33.8 °F 27.7 °F 30.2 °F 87% 29.89 in 1.0 mi ENE 6.9 mph - 0.07 in Snow , Thunderstorm Light Thunderstorms and Snow
4:35 PM 33.8 °F 28.6 °F 30.2 °F 87% 29.91 in 1.0 mi ENE 5.8 mph - 0.10 in Snow Light Snow
4:55 PM 33.8 °F 27.7 °F 30.2 °F 87% 29.90 in 1.2 mi East 6.9 mph - 0.16 in Snow , Thunderstorm Light Thunderstorms and Snow
5:15 PM 33.8 °F 29.6 °F 30.2 °F 87% 29.87 in 0.8 mi ENE 4.6 mph - 0.04 in Snow , Thunderstorm Light Thunderstorms and Snow
5:35 PM 35.6 °F 32.8 °F 32.0 °F 87% 29.90 in 1.5 mi East 3.5 mph - 0.04 in   Overcast
5:55 PM 35.6 °F 31.7 °F 32.0 °F 87% 29.89 in 1.5 mi East 4.6 mph - 0.06 in Snow Light Snow
6:15 PM 35.6 °F 32.8 °F 32.0 °F 87% 29.90 in 1.8 mi ENE 3.5 mph - N/A   Light Drizzle
6:35 PM 35.6 °F 31.7 °F 32.0 °F 87% 29.87 in 1.5 mi East 4.6 mph - N/A Snow Light Snow
6:55 PM 35.6 °F 31.7 °F 32.0 °F 87% 29.87 in 1.8 mi East 4.6 mph - N/A Snow Light Snow
7:15 PM 35.6 °F - 32.0 °F 87% 29.89 in 2.0 mi Calm Calm - N/A Snow , Thunderstorm Light Thunderstorms and Snow
7:35 PM 35.6 °F 32.8 °F 32.0 °F 87% 29.90 in 1.5 mi ENE 3.5 mph - 0.08 in Snow , Thunderstorm Light Thunderstorms and Snow
7:55 PM 35.6 °F 32.8 °F 32.0 °F 87% 29.88 in 2.5 mi East 3.5 mph - 0.10 in   Overcast
8:15 PM 35.6 °F 31.7 °F 32.0 °F 87% 29.87 in 2.0 mi East 4.6 mph - 0.03 in Snow Light Snow
8:35 PM 35.6 °F 31.7 °F 32.0 °F 87% 29.85 in 3.0 mi East 4.6 mph - 0.05 in Snow Light Snow
9:15 PM 35.6 °F 31.7 °F 32.0 °F 87% 29.83 in 5.0 mi East 4.6 mph - N/A   Overcast
9:35 PM 35.6 °F 32.8 °F 32.0 °F 87% 29.84 in 7.0 mi East 3.5 mph - N/A   Overcast
9:55 PM 35.6 °F - 32.0 °F 87% 29.85 in 7.0 mi Calm Calm - N/A   Overcast
10:15 PM 35.6 °F - 32.0 °F 87% 29.84 in 4.0 mi Calm Calm - N/A   Overcast
10:35 PM 35.6 °F - 32.0 °F 87% 29.86 in 3.0 mi Calm Calm - N/A   Overcast
10:55 PM 35.6 °F - 32.0 °F 87% 29.85 in 2.5 mi Calm Calm - N/A   Overcast
11:15 PM 35.6 °F - 32.0 °F 87% 29.83 in 2.5 mi Calm Calm - N/A   Overcast
11:35 PM 35.6 °F - 33.8 °F 93% 29.83 in 4.0 mi Calm Calm - N/A   Overcast
11:55 PM 35.6 °F - 32.0 °F 87% 29.83 in 2.5 mi Calm Calm - N/A   Overcast